Precipitable_Water
0.78 0.74 0.74 0.66 0.59 0.52 0.43 0.34 0.25 0.37 0.38 0.28 0.27 0.20 0.21 0.24 0.21 0.21 0.18 0.17 0.15 0.14 0.13 0.12 0.11 0.10 0.10 0.14 0.14 0.11 0.13 0.11 0.08 0.08 0.12 0.13 0.11 0.09 0.10 0.08 0.06 0.08 0.07 0.06
0.77 0.80 0.69 0.62 0.57 0.53 0.40 0.29 0.29 0.39 0.37 0.24 0.22 0.22 0.21 0.21 0.19 0.18 0.17 0.16 0.17 0.16 0.13 0.11 0.11 0.11 0.12 0.14 0.13 0.12 0.13 0.11 0.08 0.07 0.08 0.11 0.09 0.09 0.09 0.09 0.10 0.07 0.06 0.06
0.86 0.72 0.67 0.60 0.55 0.52 0.40 0.31 0.24 0.33 0.33 0.29 0.23 0.21 0.20 0.19 0.22 0.19 0.19 0.17 0.17 0.15 0.13 0.14 0.12 0.12 0.13 0.15 0.15 0.16 0.17 0.11 0.09 0.06 0.07 0.09 0.08 0.09 0.10 0.09 0.07 0.06 0.06 0.06
0.78 0.72 0.65 0.58 0.53 0.50 0.40 0.33 0.29 0.31 0.23 0.24 0.24 0.23 0.21 0.18 0.17 0.20 0.18 0.16 0.15 0.14 0.12 0.12 0.12 0.14 0.14 0.15 0.16 0.16 0.16 0.11 0.12 0.12 0.12 0.11 0.10 0.10 0.10 0.09 0.08 0.07 0.06 0.07
0.78 0.69 0.62 0.55 0.51 0.47 0.38 0.29 0.29 0.35 0.28 0.27 0.23 0.22 0.19 0.18 0.17 0.17 0.15 0.14 0.15 0.15 0.13 0.14 0.12 0.15 0.14 0.14 0.16 0.14 0.16 0.11 0.13 0.10 0.11 0.11 0.10 0.11 0.11 0.10 0.09 0.09 0.08 0.08
0.76 0.62 0.55 0.54 0.51 0.49 0.37 0.42 0.43 0.34 0.26 0.23 0.20 0.18 0.17 0.16 0.18 0.18 0.18 0.18 0.17 0.14 0.14 0.18 0.19 0.21 0.21 0.19 0.17 0.15 0.15 0.13 0.11 0.08 0.10 0.10 0.08 0.10 0.11 0.10 0.10 0.10 0.07 0.09
0.64 0.60 0.55 0.53 0.54 0.48 0.43 0.42 0.39 0.28 0.19 0.20 0.18 0.19 0.18 0.17 0.17 0.17 0.19 0.19 0.17 0.18 0.25 0.23 0.22 0.20 0.18 0.18 0.16 0.18 0.13 0.13 0.12 0.09 0.10 0.05 0.08 0.12 0.12 0.10 0.09 0.10 0.10 0.11
0.62 0.59 0.56 0.51 0.48 0.52 0.46 0.44 0.33 0.26 0.18 0.20 0.19 0.19 0.18 0.20 0.20 0.18 0.17 0.18 0.21 0.23 0.18 0.12 0.10 0.09 0.10 0.09 0.11 0.13 0.15 0.13 0.10 0.08 0.07 0.08 0.09 0.10 0.10 0.08 0.08 0.11 0.10 0.11
0.59 0.55 0.52 0.50 0.49 0.50 0.46 0.42 0.40 0.30 0.20 0.18 0.22 0.19 0.20 0.16 0.15 0.14 0.15 0.20 0.23 0.20 0.14 0.10 0.07 0.06 0.07 0.06 0.08 0.12 0.12 0.14 0.11 0.09 0.06 0.05 0.08 0.10 0.12 0.11 0.06 0.10 0.10 0.11
0.55 0.51 0.50 0.48 0.48 0.49 0.42 0.38 0.41 0.31 0.21 0.23 0.23 0.18 0.16 0.19 0.16 0.14 0.15 0.15 0.14 0.17 0.11 0.08 0.06 0.07 0.10 0.07 0.07 0.07 0.09 0.10 0.09 0.08 0.07 0.07 0.09 0.11 0.12 0.06 0.06 0.11 0.11 0.11
0.50 0.48 0.46 0.48 0.44 0.43 0.39 0.36 0.40 0.29 0.22 0.21 0.21 0.20 0.16 0.16 0.15 0.10 0.13 0.11 0.13 0.13 0.09 0.08 0.09 0.08 0.09 0.08 0.08 0.08 0.07 0.07 0.07 0.08 0.07 0.06 0.11 0.11 0.08 0.09 0.11 0.11 0.11 0.11
0.46 0.44 0.44 0.44 0.41 0.42 0.38 0.29 0.35 0.31 0.21 0.18 0.22 0.20 0.20 0.19 0.18 0.15 0.15 0.13 0.13 0.14 0.11 0.11 0.12 0.09 0.09 0.08 0.06 0.09 0.07 0.08 0.07 0.07 0.07 0.10 0.11 0.10 0.12 0.12 0.11 0.11 0.11 0.12
0.41 0.41 0.42 0.41 0.41 0.40 0.33 0.28 0.29 0.24 0.17 0.17 0.17 0.15 0.20 0.21 0.22 0.24 0.13 0.14 0.17 0.16 0.18 0.13 0.12 0.09 0.10 0.07 0.07 0.08 0.09 0.10 0.08 0.08 0.09 0.09 0.10 0.11 0.11 0.12 0.11 0.12 0.12 0.12
0.37 0.40 0.41 0.40 0.38 0.33 0.29 0.24 0.27 0.23 0.18 0.11 0.12 0.20 0.17 0.20 0.20 0.21 0.20 0.18 0.20 0.19 0.17 0.13 0.11 0.09 0.11 0.08 0.08 0.08 0.08 0.09 0.08 0.08 0.08 0.09 0.09 0.10 0.11 0.11 0.12 0.12 0.12 0.12
0.37 0.37 0.39 0.34 0.31 0.27 0.24 0.22 0.23 0.24 0.16 0.10 0.12 0.16 0.16 0.18 0.18 0.16 0.19 0.19 0.17 0.15 0.12 0.11 0.09 0.11 0.09 0.09 0.08 0.07 0.08 0.08 0.07 0.06 0.08 0.08 0.08 0.10 0.11 0.11 0.11 0.11 0.11 0.11
0.32 0.33 0.33 0.30 0.31 0.30 0.24 0.17 0.18 0.21 0.22 0.12 0.08 0.15 0.13 0.15 0.17 0.15 0.14 0.16 0.16 0.15 0.12 0.10 0.11 0.12 0.09 0.07 0.06 0.08 0.09 0.10 0.10 0.08 0.10 0.10 0.10 0.11 0.11 0.10 0.11 0.11 0.12 0.11
0.34 0.37 0.33 0.29 0.24 0.19 0.13 0.12 0.15 0.20 0.21 0.13 0.10 0.09 0.11 0.13 0.14 0.15 0.13 0.14 0.13 0.13 0.11 0.09 0.09 0.09 0.09 0.07 0.06 0.08 0.09 0.09 0.10 0.10 0.09 0.09 0.09 0.09 0.10 0.11 0.11 0.11 0.11 0.11
0.28 0.27 0.23 0.19 0.16 0.14 0.10 0.12 0.17 0.17 0.14 0.12 0.08 0.08 0.09 0.11 0.10 0.10 0.14 0.11 0.11 0.10 0.10 0.09 0.08 0.08 0.07 0.06 0.07 0.08 0.09 0.09 0.09 0.09 0.10 0.09 0.10 0.10 0.10 0.11 0.11 0.10 0.10 0.10
0.23 0.18 0.15 0.11 0.10 0.09 0.11 0.12 0.10 0.12 0.11 0.07 0.07 0.06 0.06 0.10 0.09 0.11 0.12 0.10 0.08 0.10 0.07 0.07 0.08 0.06 0.05 0.07 0.07 0.07 0.08 0.08 0.08 0.09 0.09 0.09 0.09 0.09 0.09 0.10 0.09 0.09 0.09 0.10
0.17 0.11 0.08 0.04 0.07 0.11 0.08 0.06 0.05 0.06 0.07 0.07 0.06 0.08 0.06 0.09 0.09 0.08 0.09 0.09 0.07 0.06 0.07 0.07 0.06 0.06 0.07 0.08 0.08 0.08 0.08 0.09 0.09 0.08 0.07 0.08 0.08 0.08 0.09 0.09 0.09 0.09 0.10 0.10
0.12 0.08 0.04 0.06 0.07 0.06 0.05 0.04 0.04 0.05 0.05 0.06 0.06 0.07 0.06 0.09 0.07 0.07 0.08 0.07 0.06 0.05 0.06 0.05 0.05 0.05 0.06 0.08 0.08 0.09 0.09 0.09 0.09 0.09 0.09 0.09 0.09 0.09 0.09 0.09 0.09 0.09 0.10 0.10
0.10 0.05 0.06 0.05 0.04 0.04 0.04 0.04 0.05 0.05 0.04 0.06 0.06 0.07 0.08 0.08 0.10 0.07 0.07 0.06 0.06 0.04 0.06 0.05 0.04 0.05 0.07 0.08 0.08 0.08 0.09 0.09 0.09 0.09 0.09 0.09 0.09 0.09 0.09 0.09 0.09 0.09 0.10 0.10
0.05 0.04 0.04 0.04 0.04 0.03 0.03 0.03 0.04 0.04 0.06 0.06 0.07 0.06 0.07 0.07 0.07 0.06 0.06 0.05 0.04 0.06 0.04 0.04 0.04 0.06 0.07 0.07 0.08 0.08 0.09 0.09 0.09 0.09 0.09 0.09 0.09 0.09 0.09 0.09 0.09 0.10 0.10 0.10
0.04 0.03 0.03 0.03 0.03 0.04 0.04 0.05 0.05 0.06 0.07 0.07 0.06 0.06 0.05 0.06 0.05 0.05 0.04 0.04 0.04 0.03 0.03 0.03 0.05 0.06 0.07 0.08 0.08 0.08 0.08 0.08 0.09 0.09 0.09 0.09 0.09 0.09 0.09 0.10 0.10 0.09 0.09 0.09
0.04 0.04 0.03 0.04 0.05 0.06 0.06 0.07 0.06 0.07 0.07 0.07 0.06 0.05 0.05 0.04 0.04 0.04 0.04 0.03 0.03 0.03 0.03 0.04 0.06 0.07 0.08 0.08 0.08 0.08 0.08 0.08 0.09 0.09 0.09 0.09 0.09 0.09 0.09 0.10 0.10 0.10 0.10 0.10
0.05 0.05 0.04 0.05 0.05 0.05 0.05 0.06 0.06 0.07 0.07 0.07 0.05 0.04 0.04 0.04 0.04 0.03 0.03 0.03 0.03 0.04 0.05 0.06 0.07 0.07 0.08 0.08 0.08 0.08 0.09 0.09 0.09 0.09 0.09 0.09 0.09 0.09 0.09 0.09 0.10 0.10 0.10 0.09
0.05 0.05 0.07 0.06 0.06 0.05 0.05 0.06 0.06 0.07 0.06 0.04 0.04 0.03 0.04 0.04 0.04 0.04 0.04 0.04 0.05 0.06 0.06 0.07 0.08 0.07 0.07 0.08 0.08 0.08 0.08 0.08 0.08 0.08 0.08 0.08 0.08 0.08 0.08 0.08 0.09 0.09 0.09 0.09
Wind_Speed
20 21 22 22 23 25 25 25 26 28 29 30 30 30 31 32 33 33 34 34 35 35 35 37 37 37 36 35 34 32 32 30 31 31 28 25 23 23 20 20 23 22 23 29
22 23 23 24 25 26 26 27 28 29 30 30 31 33 34 34 34 34 34 34 34 35 35 37 36 36 35 33 31 29 28 28 27 27 25 23 21 21 19 19 19 23 24 27
23 23 24 24 25 26 27 28 29 30 31 31 33 33 34 34 34 35 35 36 36 37 38 37 37 36 35 33 33 32 27 27 26 28 24 20 20 21 20 18 19 22 24 28
24 24 24 25 26 27 28 28 30 31 33 34 33 34 34 35 37 36 36 37 36 37 39 39 39 40 39 36 34 34 28 29 26 29 27 24 24 23 22 22 22 22 27 23
24 25 25 26 28 29 30 31 32 34 35 34 33 34 35 35 36 36 37 38 41 39 40 41 45 39 36 37 33 31 29 31 27 27 26 26 27 28 25 23 22 24 20 23
25 25 27 28 29 31 32 33 34 34 35 33 33 35 35 35 36 40 37 38 40 41 42 41 42 40 39 35 31 30 27 25 24 29 24 24 26 24 21 21 21 19 19 19
26 27 28 29 31 32 33 35 34 34 35 34 35 36 36 40 39 41 40 41 40 41 41 40 37 35 34 32 31 28 25 26 22 21 18 22 20 16 17 16 17 18 18 17
27 28 30 32 34 35 35 35 34 34 36 37 38 39 39 39 39 40 40 40 38 38 37 36 33 29 26 25 25 24 25 24 21 20 19 17 13 12 13 14 16 16 15 16
27 29 31 33 34 35 35 34 34 35 36 37 37 37 39 39 37 39 38 37 37 34 31 27 25 22 21 19 19 18 19 20 19 15 14 14 12 13 13 13 15 14 14 14
29 31 33 34 34 34 33 33 34 35 36 37 38 36 37 39 39 38 38 35 32 30 27 24 22 22 20 17 15 16 13 12 14 14 12 12 13 15 15 11 13 13 13 15
30 31 33 33 33 33 34 34 35 35 36 37 37 37 37 38 36 34 34 31 25 23 20 18 17 14 13 11 11 12 10 11 10 13 12 13 15 13 13 14 14 15 16 17
30 31 32 32 32 32 34 34 35 34 35 35 34 34 35 34 32 29 26 24 22 19 18 16 16 13 12 11 11 10 9 10 10 11 11 11 11 11 13 15 17 18 19 19
30 31 31 31 32 33 33 33 34 34 34 34 33 32 32 30 28 26 22 22 19 17 16 15 12 10 12 10 10 8 8 8 8 10 10 11 12 14 15 17 17 17 16 16
29 30 29 31 31 32 32 32 33 32 32 31 29 28 27 27 24 22 21 22 20 16 14 12 11 10 11 10 9 9 10 11 11 11 13 15 15 16 17 18 17 16 17 17
28 29 29 29 29 28 28 29 30 30 29 27 26 25 24 22 20 19 18 15 13 12 11 10 9 9 8 8 8 8 11 11 11 13 15 16 18 18 17 17 17 17 18 18
28 28 27 26 28 30 30 30 29 29 26 23 21 19 19 19 17 17 15 12 11 10 9 9 9 10 9 9 9 11 11 12 12 15 18 17 18 17 17 17 18 18 19 19
25 22 24 26 26 27 28 28 29 25 21 18 16 16 16 18 15 15 13 10 8 8 7 7 8 9 8 9 9 13 13 14 15 16 17 16 17 18 19 19 20 19 19 19
20 19 20 22 23 23 23 24 21 17 15 14 14 15 15 18 15 13 12 9 8 8 7 7 8 9 8 9 12 13 14 15 15 17 18 18 20 19 19 19 19 19 20 20
18 19 20 22 22 20 19 18 16 14 13 12 13 15 15 16 13 11 10 9 7 7 7 8 8 9 8 12 14 15 16 16 18 19 19 18 18 18 19 19 20 19 20 20
19 21 21 19 18 17 16 15 14 14 14 12 12 14 11 12 11 10 9 8 7 7 7 7 7 8 11 13 14 16 16 17 18 18 18 18 19 19 19 19 20 20 21 21
19 18 16 14 14 13 13 12 13 14 11 12 12 11 10 10 9 8 8 7 7 6 8 7 8 10 12 14 15 16 16 17 18 18 19 19 20 21 21 21 21 21 21 21
13 8 9 12 13 12 10 12 11 10 8 11 10 10 9 9 8 7 8 5 6 5 7 6 7 11 13 15 16 17 17 18 18 18 19 20 20 20 21 21 21 21 21 21
8 10 10 12 12 12 9 10 9 8 9 10 11 10 9 8 9 6 7 6 5 7 7 6 8 12 15 16 17 17 17 17 18 18 19 19 20 20 20 21 21 21 21 21
8 8 10 8 9 8 7 7 8 8 8 10 10 9 9 8 8 7 7 6 7 7 8 8 12 15 17 17 18 18 18 18 18 19 19 19 20 20 20 20 21 21 21 22
6 7 8 9 8 9 9 10 9 8 8 9 9 8 10 10 8 9 8 9 8 7 8 12 15 18 18 18 19 18 19 19 19 19 19 20 20 20 20 20 20 21 21 21
12 12 11 11 11 11 12 13 12 11 10 10 10 10 9 11 10 11 10 9 8 10 12 16 18 18 18 19 19 19 19 19 19 20 20 21 20 20 21 21 20 20 20 21
15 15 16 15 15 14 14 14 15 15 14 13 12 13 10 10 12 12 10 10 11 15 16 17 18 18 20 20 19 19 19 19 19 20 20 21 21 21 21 20 20 20 21 22
Wind_Direction
277 280 284 288 293 298 299 298 299 300 303 305 305 304 303 304 303 303 302 301 299 300 302 302 300 298 296 298 297 293 291 291 290 286 289 284 279 272 272 271 276 273 276 277
277 281 283 288 293 297 298 298 298 300 302 302 303 303 303 303 303 302 304 302 301 302 301 303 300 300 301 297 294 292 289 291 293 294 292 286 276 274 272 272 277 273 277 280
280 281 284 288 293 297 299 299 300 302 303 302 302 302 302 302 304 303 301 302 302 302 300 298 301 301 300 296 292 287 283 283 276 277 277 280 279 274 269 270 276 279 276 281
277 280 284 288 293 297 299 300 299 301 302 302 302 302 303 302 303 302 303 304 301 300 301 299 297 296 296 294 290 284 278 280 276 276 277 275 275 271 268 267 273 274 285 277
275 280 284 289 294 296 299 299 301 302 301 301 300 300 301 301 302 302 303 300 302 301 298 296 297 295 294 289 290 284 279 274 271 274 272 271 272 268 265 272 279 283 283 284
273 279 285 290 293 297 299 299 300 301 301 302 303 301 300 303 305 303 300 302 303 301 299 297 294 292 290 286 286 282 275 272 271 269 272 276 272 267 262 272 278 277 277 279
273 281 286 290 294 297 298 299 300 301 300 299 300 302 301 302 301 300 301 302 301 302 302 300 298 293 288 284 280 274 277 266 265 269 272 269 280 274 269 270 281 280 281 281
275 282 287 291 295 296 297 298 299 299 300 301 301 301 301 303 302 302 302 302 301 303 302 300 298 296 295 288 281 274 271 265 262 264 265 275 272 275 276 281 284 285 281 280
278 284 289 293 295 296 297 297 297 299 302 303 304 304 304 303 304 304 302 303 303 303 302 301 297 291 290 294 294 286 276 264 250 256 254 251 268 272 284 282 285 287 286 287
282 287 291 293 294 295 296 298 298 300 301 304 305 305 303 305 304 303 304 305 304 302 299 296 291 285 286 287 292 295 283 271 249 246 252 264 271 276 281 281 281 293 294 289
285 289 291 293 295 294 297 299 299 300 301 304 306 305 305 306 305 303 304 305 304 301 297 296 295 293 289 289 291 293 280 271 265 257 253 258 286 269 276 278 287 292 294 293
287 290 292 293 294 296 297 298 300 302 303 302 305 308 309 306 304 303 303 300 300 297 297 292 291 291 293 280 285 292 275 267 265 264 261 261 279 279 284 288 288 291 292 291
289 292 293 294 296 297 298 299 300 302 302 304 305 307 309 312 307 302 299 298 296 295 295 293 283 285 288 286 286 275 287 288 261 260 273 278 286 287 293 293 292 293 293 292
292 293 295 296 298 300 300 301 302 302 303 303 305 309 308 313 313 306 298 292 290 288 290 285 284 281 289 282 277 267 279 280 275 269 276 280 284 291 291 293 292 290 291 291
294 295 295 297 300 303 305 307 308 306 302 302 302 305 313 310 314 317 310 305 291 285 284 283 282 282 283 277 276 286 286 279 275 273 281 281 284 291 290 291 290 290 289 290
296 295 295 298 301 302 303 304 308 310 304 304 303 304 315 314 314 320 323 308 299 284 279 279 279 292 277 276 276 283 285 284 282 284 289 285 285 288 288 289 290 289 288 289
301 295 298 304 306 308 308 305 305 307 305 306 305 306 315 319 313 316 315 319 304 292 279 277 280 291 285 282 280 290 291 288 286 292 295 290 291 288 290 288 289 289 289 290
302 303 306 310 312 312 318 328 317 311 310 312 309 306 307 324 313 308 315 306 303 309 284 283 285 292 290 286 289 292 293 294 288 296 295 290 291 290 289 288 289 291 290 290
301 305 308 310 312 313 315 318 335 340 318 311 316 313 307 320 318 313 308 309 301 298 297 291 288 293 299 293 297 297 297 293 292 295 295 294 294 293 292 290 290 289 290 291
302 306 310 311 315 316 316 317 320 326 331 330 325 324 315 320 320 315 314 312 307 299 304 297 295 295 300 301 302 301 300 298 298 297 298 297 296 296 294 291 290 290 290 290
306 309 312 316 323 323 323 326 330 329 330 335 333 335 330 333 327 322 329 312 315 310 304 300 301 302 308 307 309 309 307 303 301 297 295 294 294 294 294 293 293 292 291 290
310 318 329 329 331 332 336 331 334 345 343 344 346 342 339 337 339 340 338 334 333 324 318 320 313 310 314 314 312 311 310 308 306 303 300 299 298 296 295 294 293 292 291 291
326 328 329 332 334 358 355 350 351 354 354 355 352 350 353 351 358 354 356 0 340 330 341 320 315 323 322 320 317 315 314 312 311 308 306 304 302 300 297 296 295 293 292 291
338 345 355 355 357 10 10 1 354 351 352 354 2 6 11 5 8 3 12 351 355 356 347 325 325 324 323 322 321 318 316 315 314 312 310 308 306 304 302 299 297 296 294 293
7 15 32 41 37 30 24 19 16 14 11 14 18 21 24 19 25 18 14 10 1 351 337 333 331 328 326 326 325 321 319 317 316 315 313 311 309 307 305 303 300 298 296 295
65 63 65 55 50 41 39 38 35 33 34 38 37 37 36 33 35 29 27 24 7 354 345 338 336 335 333 331 328 325 322 320 318 316 315 313 311 309 307 305 303 300 299 297
73 69 65 65 60 55 49 46 43 45 51 49 48 46 43 37 35 29 27 20 4 350 348 347 344 342 340 338 335 332 330 327 324 321 319 318 316 313 311 307 305 303 301 299